Current weather by "City, St" or "zip code"  
 
Advertise Here

Current Conditions: Worland, Worland Municipal Airport, WY

Fair


54.0 F

Last Updated on Sep 16 2021, 8:53 pm MDT
Humidity: 47%
Wind Speed: NW 9.2 mph
Barometer 30.08 in
Dewpoint: 34.0 F
Visibility: 10.00 mi
Precip: --
Heat Index: NA
Wind Chill: 51 F
Current conditions at:

Worland, Worland Municipal Airport, WY (KWRL)

Lat: 43.96583 Lon: 107.95083

Local Radar Image active severe weather and emergency alerts image image weather storm and storm spotter reports image weather observation monitoring service image
Local
Radar
Active
Alerts
Storm Reports Obs
Monitoring

Sign-up For Email & Text Message Weather Alert Notification Services



Advertise Here

Observation History for Worland, Worland Municipal Airport, WY


Time Wind
(mph)
Vis
(mi)
Weather Precip (in) Temperature (F) Relative
Humidity
Wind
Chill
(F)
Heat
Index
(F)
Pressure
Air Dwpt altimeter
(in)
sea level
(mb)
Rmks
8:53 pm MDT NW 9.2 10.00 Fair -- 54.0 34.0 47% 51 NA 30.08 1017.0
7:53 pm MDT NW 10.4 10.00 Fair -- 56.0 34.0 44% 53 NA 30.03 1015.8
6:53 pm MDT N 20.7 G 29.9 10.00 Fair and Breezy -- 61.0 33.1 35% 58 NA 29.98 1013.6
5:53 pm MDT N 23.0 G 32.2 10.00 Fair and Breezy -- 65.0 34.0 32% NA NA 29.93 1011.9
4:53 pm MDT N 19.6 G 33.4 10.00 Fair -- 69.0 34.0 27% NA NA 29.88 1009.5
3:53 pm MDT N 23.0 G 31.1 9.00 Fair and Breezy -- 73.0 34.0 24% NA NA 29.83 1007.3
2:53 pm MDT N 16.1 G 29.9 10.00 Fair -- 77.0 32.0 19% NA NA 29.80 1005.8
1:53 pm MDT N 13.8 G 25.3 10.00 Fair -- 75.0 35.1 23% NA NA 29.79 1005.1
12:53 pm MDT N 16.1 G 24.2 10.00 Fair -- 75.0 32.0 21% NA NA 29.77 1004.5
11:53 am MDT N 10.4 10.00 Fair -- 73.0 35.1 25% NA NA 29.77 1004.4
10:53 am MDT N 5.8 10.00 Fair -- 68.0 37.0 32% NA NA 29.78 1005.2
9:53 am MDT N 0.0 10.00 Fair -- 64.0 39.0 40% NA NA 29.79 1005.4
8:53 am MDT N 3.5 10.00 Fair -- 58.0 36.0 44% NA NA 29.79 1005.9
7:53 am MDT NW 3.5 10.00 Fair -- 49.0 30.0 48% NA NA 29.80 1006.5
6:53 am MDT E 5.8 10.00 Fair -- 49.0 24.1 38% 47 NA 29.77 1004.9
5:53 am MDT N 0.0 10.00 Fair -- 44.0 25.0 47% NA NA 29.76 1004.1
4:53 am MDT N 0.0 10.00 Fair -- 46.0 28.9 51% NA NA 29.74 1003.5
3:53 am MDT SE 4.6 10.00 Fair -- 51.0 25.0 36% 50 NA 29.73 1002.8
2:53 am MDT N 4.6 10.00 Fair -- 50.0 26.1 39% 48 NA 29.74 1003.1
1:53 am MDT SE 6.9 10.00 Fair -- 56.0 24.1 29% 54 NA 29.74 1002.9
12:53 am MDT N 0.0 10.00 Fair -- 58.0 25.0 28% NA NA 29.75 1003.4
11:53 pm MDT SE 4.6 10.00 Fair -- 60.0 26.1 27% 60 NA 29.76 1003.9
10:53 pm MDT S 5.8 10.00 Fair -- 60.0 28.9 31% 60 NA 29.77 1004.7
9:53 pm MDT SW 4.6 10.00 Fair -- 65.0 28.9 26% NA NA 29.76 1004.5

Regional Weather Observation


Worland, Worland Municipal Airport, WY (KWRL)

Fair
54.0 F

Hot Springs County Airport, WY (KHSG)

Fair
52.0 F

Cowley WY, WY (KU68)

Fair
50.0 F

Powell Municipal Airport, WY (KPOY)

Fair
43.0 F

Boysen, WY (KTBX)

Fair
63.0 F

Cody, WY (KCOD)

Overcast
47.0 F
Advertise Here


Advertise Here